Starlink 3808

operational
NORAD ID: 52366 Int'l Des: 2022-045 Owner: SPXS Country: US Constellation: starlink
LEOCIRCULAR

Starlink 3808について

説明を読み込み中...

リアルタイム位置

3D地球を読み込み中...

次回通過

高度履歴

Altitude vs Time

uPlot chart will show altitude changes over time

軌道要素

1 52366U 22045AM 25260.49047159 .00003485 00000-0 23695-3 0 9997
2 52366 53.2137 246.6446 0001456 101.2425 258.8731 15.08842192189774
Epoch: Sep 17, 2025 • Age: 34 hours

現在のステータス

高度 545.3 km
速度 7.60 km/s
衛星直下点 53.04°N, 0.55°E
打ち上げ日 Apr 29, 2022
運用期間 3.3 years
タイプ internet

技術仕様

分類 Payload
質量 297.00 kg
乾燥質量 275.00 kg
総質量 297.00 kg
長さ 0.20 m
直径 2.80 m
スパン 9.00 m
形状 Box + pan
製造者 SPXS
バスタイプ Starlink
フェーズステータス In Orbit
所有者/国 SPXS/US

大規模コンステレーション

Loading constellations...